User: anonymous   Login
Location: Churchill
(58.7670°N, 94.1670°W)
Time: 19:25:42
(UTC-06:00)
Language:

Cosmos 1315 Rocket - Orbit

View from above orbital plane
View from above orbital plane
View from above satellite
View from above satellite

Ground track
Ground track

The orbit data is extracted from the following two-line orbital elements,

1 12904U 81103B   14355.18083312  .00004767  00000-0  34617-3 0  6561
2 12904 081.1775 232.6785 0029420 170.6288 189.5489 15.03359527356131
Epoch (UTC): 21 December 2014 04:20:23
Eccentricity: 0.0029420
inclination: 81.1775°
perigee height: 536 km
apogee height: 577 km
right ascension of ascending node: 232.6785°
argument of perigee: 170.6288°
revolutions per day: 15.03359527
mean anomaly at epoch: 189.5489°
orbit number at epoch: 35613

The dashed part of the orbit path shows where the satellite is in the earth's shadow,  

DLR